| time (UTC) | temp F | wind direction | speed MPH | gust MPH | rain 1hr in | rain 24hr in | rain mn in | humidity % | barometer mb |
| 20260509155517 | 62 | 341 | 6.0 | 10.0 | 0.00 | 0.00 | 0.00 | 55 | 1019.1 |
| 20260509155010 | 61 | 325 | 3.0 | 6.0 | 0.00 | 0.00 | 0.00 | 56 | 1019.1 |
| 20260509154517 | 61 | 299 | 3.0 | 8.0 | 0.00 | 0.00 | 0.00 | 56 | 1019.1 |
| 20260509154011 | 61 | 4 | 1.0 | 8.0 | 0.00 | 0.00 | 0.00 | 56 | 1019.2 |
| 20260509153515 | 61 | 296 | 2.0 | 6.0 | 0.00 | 0.00 | 0.00 | 57 | 1019.2 |
| 20260509153014 | 61 | 266 | 2.0 | 7.0 | 0.00 | 0.00 | 0.00 | 56 | 1019.2 |
| 20260509152514 | 62 | 262 | 2.0 | 10.0 | 0.00 | 0.00 | 0.00 | 55 | 1019.2 |
| 20260509152013 | 62 | 337 | 4.0 | 8.0 | 0.00 | 0.00 | 0.00 | 55 | 1019.1 |
| 20260509151514 | 62 | 258 | 3.0 | 5.0 | 0.00 | 0.00 | 0.00 | 56 | 1019.1 |
| 20260509151011 | 61 | 326 | 5.0 | 6.0 | 0.00 | 0.00 | 0.00 | 56 | 1019.1 |
| 20260509150512 | 61 | 287 | 0.0 | 6.0 | 0.00 | 0.00 | 0.00 | 56 | 1019.1 |
| 20260509150015 | 61 | 277 | 6.0 | 8.0 | 0.00 | 0.00 | 0.00 | 58 | 1019.2 |
| 20260509145517 | 61 | 243 | 3.0 | 9.0 | 0.00 | 0.00 | 0.00 | 58 | 1019.2 |
| 20260509145014 | 60 | 310 | 4.0 | 5.0 | 0.00 | 0.00 | 0.00 | 58 | 1019.2 |
| 20260509144520 | 60 | 287 | 4.0 | 7.0 | 0.00 | 0.00 | 0.00 | 57 | 1019.2 |
| 20260509144011 | 60 | 237 | 4.0 | 6.0 | 0.00 | 0.00 | 0.00 | 56 | 1019.2 |
| 20260509143515 | 61 | 307 | 5.0 | 9.0 | 0.00 | 0.00 | 0.00 | 55 | 1019.2 |
| 20260509143014 | 62 | 8 | 2.0 | 7.0 | 0.00 | 0.00 | 0.00 | 55 | 1019.2 |
| 20260509142511 | 62 | 331 | 2.0 | 7.0 | 0.00 | 0.00 | 0.00 | 56 | 1019.2 |
| 20260509142014 | 62 | 346 | 2.0 | 10.0 | 0.00 | 0.00 | 0.00 | 55 | 1019.3 |
| 20260509141520 | 62 | 242 | 6.0 | 9.0 | 0.00 | 0.00 | 0.00 | 54 | 1019.3 |
| 20260509141011 | 63 | 262 | 4.0 | 8.0 | 0.00 | 0.00 | 0.00 | 53 | 1019.3 |
| 20260509140512 | 62 | 258 | 0.0 | 5.0 | 0.00 | 0.00 | 0.00 | 56 | 1019.3 |
| 20260509140010 | 61 | 24 | 4.0 | 7.0 | 0.00 | 0.00 | 0.00 | 56 | 1019.4 |
| 20260509135510 | 60 | 310 | 5.0 | 8.0 | 0.00 | 0.00 | 0.00 | 59 | 1019.5 |
| 20260509135010 | 59 | 300 | 5.0 | 5.0 | 0.00 | 0.00 | 0.00 | 59 | 1019.5 |
| 20260509134519 | 59 | 321 | 5.0 | 8.0 | 0.00 | 0.00 | 0.00 | 58 | 1019.5 |
| 20260509134013 | 61 | 316 | 5.0 | 8.0 | 0.00 | 0.00 | 0.00 | 57 | 1019.5 |
| 20260509133512 | 61 | 263 | 2.0 | 8.0 | 0.00 | 0.00 | 0.00 | 57 | 1019.5 |
| 20260509133014 | 60 | 343 | 5.0 | 5.0 | 0.00 | 0.00 | 0.00 | 58 | 1019.6 |
| 20260509132516 | 59 | 348 | 2.0 | 6.0 | 0.00 | 0.00 | 0.00 | 61 | 1019.6 |
| 20260509132010 | 59 | 356 | 5.0 | 8.0 | 0.00 | 0.00 | 0.00 | 59 | 1019.7 |
| 20260509131516 | 60 | 304 | 3.0 | 9.0 | 0.00 | 0.00 | 0.00 | 59 | 1019.7 |
| 20260509131016 | 61 | 317 | 4.0 | 8.0 | 0.00 | 0.00 | 0.00 | 58 | 1019.7 |
| 20260509130512 | 60 | 116 | 1.0 | 4.0 | 0.00 | 0.00 | 0.00 | 59 | 1019.7 |
| 20260509130013 | 60 | 318 | 2.0 | 8.0 | 0.00 | 0.00 | 0.00 | 59 | 1019.8 |
| 20260509125510 | 60 | 0 | 2.0 | 7.0 | 0.00 | 0.00 | 0.00 | 59 | 1019.8 |
| 20260509125013 | 60 | 100 | 1.0 | 7.0 | 0.00 | 0.00 | 0.00 | 60 | 1019.9 |
| 20260509124516 | 59 | 7 | 2.0 | 8.0 | 0.00 | 0.00 | 0.00 | 60 | 1019.9 |
| 20260509124013 | 60 | 294 | 5.0 | 6.0 | 0.00 | 0.00 | 0.00 | 60 | 1019.9 |
| 20260509123515 | 60 | 131 | 3.0 | 10.0 | 0.00 | 0.00 | 0.00 | 58 | 1020.0 |
| 20260509123013 | 61 | 258 | 2.0 | 6.0 | 0.00 | 0.00 | 0.00 | 58 | 1020.0 |
| 20260509122511 | 60 | 10 | 5.0 | 8.0 | 0.00 | 0.00 | 0.00 | 59 | 1020.0 |
| 20260509122010 | 60 | 277 | 3.0 | 11.0 | 0.00 | 0.00 | 0.00 | 60 | 1019.9 |
| 20260509121511 | 60 | 351 | 2.0 | 11.0 | 0.00 | 0.00 | 0.00 | 61 | 1019.9 |
| 20260509121015 | 59 | 295 | 3.0 | 10.0 | 0.00 | 0.00 | 0.00 | 62 | 1020.0 |
| 20260509120519 | 59 | 348 | 3.0 | 10.0 | 0.00 | 0.00 | 0.00 | 63 | 1020.1 |
| 20260509120014 | 59 | 261 | 5.0 | 10.0 | 0.00 | 0.00 | 0.00 | 63 | 1020.1 |
| 20260509115513 | 59 | 287 | 3.0 | 11.0 | 0.00 | 0.00 | 0.00 | 65 | 1020.2 |
| 20260509115013 | 58 | 198 | 2.0 | 11.0 | 0.00 | 0.00 | 0.00 | 66 | 1020.2 |
| 20260509114510 | 57 | 304 | 6.0 | 11.0 | 0.00 | 0.00 | 0.00 | 67 | 1020.2 |
| 20260509114012 | 57 | 317 | 8.0 | 10.0 | 0.00 | 0.00 | 0.00 | 66 | 1020.2 |
| 20260509113511 | 57 | 337 | 5.0 | 8.0 | 0.00 | 0.00 | 0.00 | 66 | 1020.3 |
| 20260509113014 | 57 | 298 | 5.0 | 9.0 | 0.00 | 0.00 | 0.00 | 66 | 1020.3 |
| 20260509112517 | 57 | 311 | 7.0 | 10.0 | 0.00 | 0.00 | 0.00 | 66 | 1020.3 |
| 20260509112013 | 58 | 291 | 5.0 | 10.0 | 0.00 | 0.00 | 0.00 | 65 | 1020.3 |
| 20260509111510 | 57 | 262 | 6.0 | 9.0 | 0.00 | 0.00 | 0.00 | 64 | 1020.3 |
| 20260509111018 | 58 | 301 | 8.0 | 8.0 | 0.00 | 0.00 | 0.00 | 64 | 1020.3 |
| 20260509110513 | 58 | 294 | 3.0 | 8.0 | 0.00 | 0.00 | 0.00 | 64 | 1020.4 |
| 20260509110011 | 58 | 302 | 5.0 | 8.0 | 0.00 | 0.00 | 0.00 | 64 | 1020.4 |
| 20260509105520 | 57 | 340 | 1.0 | 5.0 | 0.00 | 0.00 | 0.00 | 64 | 1020.5 |
| 20260509105020 | 58 | 315 | 4.0 | 5.0 | 0.00 | 0.00 | 0.00 | 63 | 1020.5 |
| 20260509104511 | 57 | 287 | 1.0 | 4.0 | 0.00 | 0.00 | 0.00 | 64 | 1020.4 |
| 20260509104021 | 57 | 354 | 4.0 | 4.0 | 0.00 | 0.00 | 0.00 | 63 | 1020.4 |
| 20260509103511 | 57 | 0 | 3.0 | 7.0 | 0.00 | 0.00 | 0.00 | 64 | 1020.4 |
| 20260509103014 | 57 | 337 | 2.0 | 10.0 | 0.00 | 0.00 | 0.00 | 64 | 1020.4 |
| 20260509102511 | 58 | 328 | 5.0 | 6.0 | 0.00 | 0.00 | 0.00 | 62 | 1020.4 |
| 20260509102011 | 58 | 350 | 1.0 | 6.0 | 0.00 | 0.00 | 0.00 | 61 | 1020.4 |
| 20260509101514 | 57 | 312 | 4.0 | 5.0 | 0.00 | 0.00 | 0.00 | 62 | 1020.5 |
| 20260509101012 | 57 | 85 | 4.0 | 9.0 | 0.00 | 0.00 | 0.00 | 61 | 1020.5 |
| 20260509100516 | 58 | 6 | 2.0 | 6.0 | 0.00 | 0.00 | 0.00 | 62 | 1020.4 |
| 20260509100017 | 58 | 9 | 2.0 | 7.0 | 0.00 | 0.00 | 0.00 | 62 | 1020.5 |
| 20260509095510 | 57 | 23 | 1.0 | 6.0 | 0.00 | 0.00 | 0.00 | 64 | 1020.5 |
| 20260509095012 | 57 | 12 | 1.0 | 4.0 | 0.00 | 0.00 | 0.00 | 64 | 1020.5 |
| 20260509094516 | 56 | 18 | 1.0 | 5.0 | 0.00 | 0.00 | 0.00 | 65 | 1020.5 |
| 20260509094016 | 56 | 67 | 4.0 | 8.0 | 0.00 | 0.00 | 0.00 | 66 | 1020.4 |
| 20260509093510 | 56 | 306 | 1.0 | 5.0 | 0.00 | 0.00 | 0.00 | 65 | 1020.4 |
| 20260509093010 | 56 | 316 | 4.0 | 5.0 | 0.00 | 0.00 | 0.00 | 66 | 1020.4 |
| 20260509092515 | 56 | 302 | 2.0 | 4.0 | 0.00 | 0.00 | 0.00 | 67 | 1020.4 |
| 20260509092016 | 56 | 348 | 1.0 | 6.0 | 0.00 | 0.00 | 0.00 | 68 | 1020.3 |
| 20260509091510 | 55 | 350 | 4.0 | 6.0 | 0.00 | 0.00 | 0.00 | 69 | 1020.3 |
| 20260509091010 | 55 | 199 | 0.0 | 4.0 | 0.00 | 0.00 | 0.00 | 69 | 1020.3 |
| 20260509090513 | 55 | 296 | 4.0 | 6.0 | 0.00 | 0.00 | 0.00 | 68 | 1020.4 |
| 20260509090010 | 55 | 263 | 2.0 | 5.0 | 0.00 | 0.00 | 0.00 | 67 | 1020.3 |
| 20260509085515 | 56 | 277 | 3.0 | 6.0 | 0.00 | 0.00 | 0.00 | 67 | 1020.4 |
| 20260509085011 | 56 | 277 | 2.0 | 5.0 | 0.00 | 0.00 | 0.00 | 67 | 1020.4 |
| 20260509084510 | 57 | 243 | 2.0 | 6.0 | 0.00 | 0.00 | 0.00 | 68 | 1020.4 |
| 20260509084010 | 56 | 299 | 4.0 | 6.0 | 0.00 | 0.00 | 0.00 | 70 | 1020.5 |
| 20260509083513 | 55 | 52 | 1.0 | 4.0 | 0.00 | 0.00 | 0.00 | 72 | 1020.4 |
| 20260509083019 | 55 | 349 | 2.0 | 5.0 | 0.00 | 0.00 | 0.00 | 73 | 1020.4 |
| 20260509082518 | 55 | 340 | 2.0 | 4.0 | 0.00 | 0.00 | 0.00 | 75 | 1020.5 |
| 20260509082019 | 54 | 320 | 2.0 | 3.0 | 0.00 | 0.00 | 0.00 | 75 | 1020.5 |
| 20260509081510 | 55 | 316 | 4.0 | 4.0 | 0.00 | 0.00 | 0.00 | 75 | 1020.4 |
| 20260509081013 | 55 | 346 | 1.0 | 5.0 | 0.00 | 0.00 | 0.00 | 75 | 1020.5 |
| 20260509080510 | 55 | 5 | 4.0 | 5.0 | 0.00 | 0.00 | 0.00 | 76 | 1020.5 |
| 20260509080011 | 55 | 19 | 4.0 | 6.0 | 0.00 | 0.00 | 0.00 | 76 | 1020.4 |
| 20260509075512 | 54 | 233 | 1.0 | 7.0 | 0.00 | 0.00 | 0.00 | 78 | 1020.4 |
| 20260509075010 | 54 | 331 | 3.0 | 6.0 | 0.00 | 0.00 | 0.00 | 76 | 1020.5 |
| 20260509074517 | 55 | 331 | 6.0 | 13.0 | 0.00 | 0.00 | 0.00 | 76 | 1020.5 |
| 20260509074013 | 54 | 337 | 1.0 | 6.0 | 0.00 | 0.00 | 0.00 | 77 | 1020.5 |
| 20260509073511 | 54 | 58 | 5.0 | 7.0 | 0.00 | 0.00 | 0.00 | 78 | 1020.5 |
| 20260509073013 | 53 | 306 | 1.0 | 5.0 | 0.00 | 0.00 | 0.00 | 80 | 1020.5 |
| 20260509072512 | 53 | 353 | 4.0 | 8.0 | 0.00 | 0.00 | 0.00 | 79 | 1020.5 |
| 20260509072010 | 53 | 314 | 4.0 | 7.0 | 0.00 | 0.00 | 0.00 | 80 | 1020.5 |
| 20260509071510 | 53 | 358 | 3.0 | 6.0 | 0.00 | 0.00 | 0.00 | 81 | 1020.5 |
| 20260509071017 | 52 | 318 | 5.0 | 7.0 | 0.00 | 0.00 | 0.00 | 80 | 1020.4 |
| 20260509070516 | 52 | 328 | 3.0 | 7.0 | 0.00 | 0.00 | 0.00 | 81 | 1020.4 |
| 20260509070010 | 52 | 335 | 4.0 | 8.0 | 0.00 | 0.00 | 0.00 | 82 | 1020.4 |
| 20260509065515 | 52 | 350 | 4.0 | 8.0 | 0.00 | 0.00 | 0.00 | 83 | 1020.4 |
| 20260509065013 | 51 | 12 | 4.0 | 6.0 | 0.00 | 0.00 | 0.00 | 83 | 1020.3 |
| 20260509064511 | 51 | 343 | 3.0 | 9.0 | 0.00 | 0.00 | 0.00 | 83 | 1020.3 |
| 20260509064010 | 51 | 311 | 3.0 | 7.0 | 0.00 | 0.00 | 0.00 | 85 | 1020.3 |
| 20260509063517 | 50 | 33 | 2.0 | 7.0 | 0.00 | 0.00 | 0.00 | 85 | 1020.3 |
| 20260509063017 | 50 | 308 | 3.0 | 6.0 | 0.00 | 0.00 | 0.00 | 86 | 1020.2 |
| 20260509062512 | 50 | 303 | 4.0 | 7.0 | 0.00 | 0.00 | 0.00 | 86 | 1020.2 |
| 20260509062020 | 49 | 316 | 4.0 | 8.0 | 0.00 | 0.00 | 0.00 | 87 | 1020.2 |
| 20260509061511 | 49 | 322 | 2.0 | 6.0 | 0.00 | 0.00 | 0.00 | 87 | 1020.2 |
| 20260509061017 | 49 | 312 | 7.0 | 7.0 | 0.00 | 0.00 | 0.00 | 88 | 1020.1 |
| 20260509060513 | 49 | 340 | 4.0 | 6.0 | 0.00 | 0.00 | 0.00 | 88 | 1020.2 |
| 20260509060010 | 49 | 277 | 3.0 | 4.0 | 0.00 | 0.00 | 0.00 | 89 | 1020.2 |
| 20260509055518 | 49 | 277 | 2.0 | 4.0 | 0.00 | 0.00 | 0.00 | 89 | 1020.2 |
| 20260509055013 | 49 | 265 | 1.0 | 4.0 | 0.00 | 0.00 | 0.00 | 89 | 1020.3 |
| 20260509054513 | 49 | 343 | 1.0 | 4.0 | 0.00 | 0.00 | 0.00 | 90 | 1020.2 |
| 20260509054013 | 48 | 306 | 2.0 | 4.0 | 0.00 | 0.00 | 0.00 | 90 | 1020.3 |
| 20260509053513 | 49 | 294 | 3.0 | 3.0 | 0.00 | 0.00 | 0.00 | 90 | 1020.3 |
| 20260509053019 | 48 | 294 | 0.0 | 0.0 | 0.00 | 0.00 | 0.00 | 91 | 1020.3 |
| 20260509052512 | 48 | 294 | 0.0 | 2.0 | 0.00 | 0.00 | 0.00 | 91 | 1020.2 |
| 20260509052010 | 47 | 294 | 1.0 | 2.0 | 0.00 | 0.00 | 0.00 | 91 | 1020.1 |
| 20260509051510 | 47 | 294 | 0.0 | 1.0 | 0.00 | 0.00 | 0.00 | 91 | 1020.1 |
| 20260509051010 | 47 | 294 | 0.0 | 3.0 | 0.00 | 0.00 | 0.00 | 91 | 1020.0 |
| 20260509050510 | 47 | 294 | 1.0 | 3.0 | 0.00 | 0.00 | 0.00 | 91 | 1020.0 |
| 20260509050016 | 47 | 294 | 2.0 | 3.0 | 0.00 | 0.00 | 0.00 | 91 | 1019.9 |
| 20260509045512 | 47 | 294 | 2.0 | 3.0 | 0.00 | 0.00 | 0.00 | 91 | 1020.0 |
| 20260509045013 | 47 | 291 | 2.0 | 3.0 | 0.00 | 0.00 | 0.00 | 92 | 1019.9 |
| 20260509044517 | 47 | 282 | 3.0 | 4.0 | 0.00 | 0.00 | 0.00 | 92 | 1020.0 |
| 20260509044014 | 47 | 282 | 2.0 | 4.0 | 0.00 | 0.00 | 0.00 | 92 | 1019.9 |
| 20260509043513 | 46 | 270 | 2.0 | 3.0 | 0.00 | 0.00 | 0.00 | 92 | 1019.8 |
| 20260509043010 | 46 | 287 | 1.0 | 4.0 | 0.00 | 0.00 | 0.00 | 92 | 1019.8 |
| 20260509042512 | 46 | 293 | 2.0 | 3.0 | 0.00 | 0.00 | 0.00 | 92 | 1019.8 |
| 20260509042013 | 46 | 292 | 2.0 | 3.0 | 0.00 | 0.00 | 0.00 | 92 | 1019.7 |
| 20260509041513 | 46 | 282 | 2.0 | 3.0 | 0.00 | 0.00 | 0.00 | 92 | 1019.7 |
| 20260509041010 | 46 | 282 | 1.0 | 4.0 | 0.00 | 0.00 | 0.00 | 92 | 1019.8 |
| 20260509040516 | 46 | 272 | 3.0 | 4.0 | 0.00 | 0.00 | 0.00 | 92 | 1019.8 |
| 20260509040013 | 46 | 282 | 3.0 | 4.0 | 0.00 | 0.00 | 0.00 | 92 | 1019.7 |
| 20260509035518 | 46 | 282 | 3.0 | 5.0 | 0.00 | 0.00 | 0.00 | 92 | 1019.7 |
| 20260509035013 | 46 | 282 | 3.0 | 5.0 | 0.00 | 0.00 | 0.00 | 92 | 1019.8 |
| 20260509034519 | 46 | 270 | 2.0 | 5.0 | 0.00 | 0.00 | 0.00 | 92 | 1019.7 |
| 20260509034013 | 45 | 293 | 4.0 | 5.0 | 0.00 | 0.00 | 0.00 | 91 | 1019.8 |
| 20260509033513 | 45 | 277 | 1.0 | 4.0 | 0.00 | 0.00 | 0.00 | 91 | 1019.8 |
| 20260509033013 | 45 | 273 | 2.0 | 4.0 | 0.00 | 0.00 | 0.00 | 91 | 1019.8 |
| 20260509032521 | 46 | 282 | 3.0 | 4.0 | 0.00 | 0.00 | 0.00 | 91 | 1019.9 |
| 20260509032019 | 46 | 282 | 4.0 | 4.0 | 0.00 | 0.00 | 0.00 | 91 | 1019.9 |
| 20260509031513 | 46 | 271 | 2.0 | 4.0 | 0.00 | 0.00 | 0.00 | 91 | 1019.9 |
| 20260509031013 | 46 | 282 | 1.0 | 4.0 | 0.00 | 0.00 | 0.00 | 91 | 1019.9 |
| 20260509030513 | 46 | 277 | 3.0 | 4.0 | 0.00 | 0.00 | 0.00 | 91 | 1019.9 |
| 20260509030017 | 46 | 265 | 2.0 | 4.0 | 0.00 | 0.00 | 0.00 | 91 | 1019.9 |
| 20260509025512 | 46 | 282 | 2.0 | 4.0 | 0.00 | 0.00 | 0.00 | 91 | 1020.0 |
| 20260509025011 | 46 | 277 | 2.0 | 3.0 | 0.00 | 0.00 | 0.00 | 91 | 1020.0 |
| 20260509024510 | 46 | 277 | 1.0 | 4.0 | 0.00 | 0.00 | 0.00 | 90 | 1020.0 |
| 20260509024014 | 46 | 269 | 4.0 | 4.0 | 0.00 | 0.00 | 0.00 | 90 | 1020.0 |
| 20260509023520 | 46 | 277 | 3.0 | 4.0 | 0.00 | 0.00 | 0.00 | 90 | 1020.0 |
| 20260509023017 | 46 | 287 | 2.0 | 4.0 | 0.00 | 0.00 | 0.00 | 90 | 1020.0 |
| 20260509022515 | 46 | 277 | 2.0 | 4.0 | 0.00 | 0.00 | 0.00 | 90 | 1019.9 |
| 20260509022010 | 46 | 282 | 3.0 | 4.0 | 0.00 | 0.00 | 0.00 | 90 | 1020.0 |
| 20260509021511 | 46 | 255 | 2.0 | 4.0 | 0.00 | 0.00 | 0.00 | 90 | 1020.0 |
| 20260509021011 | 46 | 272 | 2.0 | 4.0 | 0.00 | 0.00 | 0.00 | 90 | 1020.1 |
| 20260509020516 | 47 | 262 | 3.0 | 3.0 | 0.00 | 0.00 | 0.00 | 90 | 1020.1 |
| 20260509020010 | 47 | 304 | 2.0 | 4.0 | 0.00 | 0.00 | 0.00 | 90 | 1020.2 |
| 20260509015515 | 47 | 312 | 4.0 | 4.0 | 0.00 | 0.00 | 0.00 | 90 | 1020.1 |
| 20260509015010 | 47 | 310 | 3.0 | 5.0 | 0.00 | 0.00 | 0.00 | 90 | 1020.1 |
| 20260509014510 | 47 | 297 | 3.0 | 5.0 | 0.00 | 0.00 | 0.00 | 90 | 1020.2 |
| 20260509014013 | 46 | 282 | 2.0 | 3.0 | 0.00 | 0.00 | 0.00 | 90 | 1020.1 |
| 20260509013510 | 47 | 282 | 2.0 | 3.0 | 0.00 | 0.00 | 0.00 | 89 | 1020.1 |
| 20260509013013 | 47 | 282 | 2.0 | 3.0 | 0.00 | 0.00 | 0.00 | 89 | 1020.2 |
| 20260509012521 | 47 | 282 | 3.0 | 4.0 | 0.00 | 0.00 | 0.00 | 89 | 1020.2 |
| 20260509012010 | 47 | 268 | 2.0 | 3.0 | 0.00 | 0.00 | 0.00 | 89 | 1020.1 |
| 20260509011513 | 47 | 269 | 1.0 | 3.0 | 0.00 | 0.00 | 0.00 | 89 | 1020.1 |
| 20260509011010 | 47 | 282 | 2.0 | 3.0 | 0.00 | 0.00 | 0.00 | 89 | 1020.1 |
| 20260509010513 | 47 | 269 | 1.0 | 2.0 | 0.00 | 0.00 | 0.00 | 89 | 1020.2 |
| 20260509010013 | 47 | 269 | 2.0 | 3.0 | 0.00 | 0.00 | 0.00 | 89 | 1020.2 |
| 20260509005518 | 47 | 269 | 2.0 | 3.0 | 0.00 | 0.00 | 0.00 | 89 | 1020.1 |
| 20260509005010 | 47 | 268 | 2.0 | 4.0 | 0.00 | 0.00 | 0.00 | 88 | 1020.2 |
| 20260509004513 | 47 | 282 | 2.0 | 3.0 | 0.00 | 0.00 | 0.00 | 88 | 1020.2 |
| 20260509004016 | 47 | 254 | 2.0 | 4.0 | 0.00 | 0.00 | 0.00 | 88 | 1020.1 |
| 20260509003513 | 47 | 282 | 3.0 | 3.0 | 0.00 | 0.00 | 0.00 | 88 | 1020.1 |
| 20260509003016 | 47 | 263 | 2.0 | 3.0 | 0.00 | 0.00 | 0.00 | 88 | 1020.2 |
| 20260509002512 | 47 | 272 | 2.0 | 4.0 | 0.00 | 0.00 | 0.00 | 88 | 1020.1 |
| 20260509002010 | 47 | 282 | 3.0 | 4.0 | 0.00 | 0.00 | 0.00 | 88 | 1020.2 |
| 20260509001510 | 47 | 255 | 1.0 | 4.0 | 0.00 | 0.00 | 0.00 | 88 | 1020.2 |
| 20260509001013 | 48 | 261 | 3.0 | 5.0 | 0.00 | 0.00 | 0.00 | 87 | 1020.2 |
| 20260509000514 | 48 | 287 | 4.0 | 5.0 | 0.00 | 0.00 | 0.00 | 87 | 1020.3 |
| 20260509000010 | 48 | 282 | 2.0 | 5.0 | 0.00 | 0.00 | 0.00 | 87 | 1020.3 |
| 20260508235515 | 48 | 269 | 4.0 | 5.0 | 0.00 | 0.00 | 0.00 | 87 | 1020.3 |
| 20260508235015 | 48 | 252 | 1.0 | 5.0 | 0.00 | 0.00 | 0.00 | 87 | 1020.3 |
| 20260508234510 | 48 | 282 | 3.0 | 5.0 | 0.00 | 0.00 | 0.00 | 87 | 1020.3 |
| 20260508234010 | 48 | 287 | 3.0 | 6.0 | 0.00 | 0.00 | 0.00 | 87 | 1020.2 |
| 20260508233516 | 48 | 282 | 6.0 | 6.0 | 0.00 | 0.00 | 0.00 | 87 | 1020.3 |
| 20260508233013 | 48 | 287 | 2.0 | 6.0 | 0.00 | 0.00 | 0.00 | 87 | 1020.3 |
| 20260508232512 | 48 | 294 | 6.0 | 7.0 | 0.00 | 0.00 | 0.00 | 86 | 1020.4 |
| 20260508232010 | 48 | 266 | 2.0 | 5.0 | 0.00 | 0.00 | 0.00 | 86 | 1020.4 |
| 20260508231514 | 48 | 268 | 4.0 | 6.0 | 0.00 | 0.00 | 0.00 | 86 | 1020.4 |
| 20260508231013 | 48 | 271 | 3.0 | 5.0 | 0.00 | 0.00 | 0.00 | 86 | 1020.4 |
| 20260508230510 | 48 | 267 | 0.0 | 5.0 | 0.00 | 0.00 | 0.00 | 86 | 1020.5 |
| 20260508230019 | 48 | 287 | 3.0 | 6.0 | 0.00 | 0.00 | 0.00 | 86 | 1020.4 |
| 20260508225512 | 48 | 264 | 3.0 | 7.0 | 0.00 | 0.00 | 0.00 | 86 | 1020.4 |
| 20260508225014 | 48 | 247 | 6.0 | 5.0 | 0.00 | 0.00 | 0.00 | 85 | 1020.3 |
| 20260508224516 | 48 | 277 | 4.0 | 8.0 | 0.00 | 0.00 | 0.00 | 85 | 1020.3 |
| 20260508224010 | 48 | 277 | 3.0 | 6.0 | 0.00 | 0.00 | 0.00 | 85 | 1020.5 |
| 20260508223510 | 48 | 272 | 3.0 | 6.0 | 0.00 | 0.00 | 0.00 | 85 | 1020.5 |
| 20260508223016 | 48 | 260 | 4.0 | 7.0 | 0.00 | 0.00 | 0.00 | 85 | 1020.5 |
| 20260508222521 | 49 | 293 | 5.0 | 6.0 | 0.00 | 0.00 | 0.00 | 85 | 1020.4 |
| 20260508222011 | 48 | 282 | 5.0 | 7.0 | 0.00 | 0.00 | 0.00 | 86 | 1020.5 |
| 20260508221516 | 48 | 277 | 3.0 | 7.0 | 0.00 | 0.00 | 0.00 | 86 | 1020.5 |
| 20260508221013 | 48 | 259 | 1.0 | 5.0 | 0.00 | 0.00 | 0.00 | 86 | 1020.6 |
| 20260508220513 | 48 | 235 | 3.0 | 5.0 | 0.00 | 0.00 | 0.00 | 86 | 1020.5 |
| 20260508220010 | 48 | 262 | 3.0 | 6.0 | 0.00 | 0.00 | 0.00 | 86 | 1020.5 |
| 20260508215515 | 48 | 282 | 3.0 | 5.0 | 0.00 | 0.00 | 0.00 | 86 | 1020.5 |
| 20260508215010 | 48 | 250 | 5.0 | 5.0 | 0.00 | 0.00 | 0.00 | 87 | 1020.5 |
| 20260508214510 | 48 | 293 | 2.0 | 5.0 | 0.00 | 0.00 | 0.00 | 87 | 1020.3 |
| 20260508214013 | 48 | 271 | 4.0 | 7.0 | 0.00 | 0.00 | 0.00 | 87 | 1020.3 |
| 20260508213513 | 48 | 277 | 2.0 | 7.0 | 0.00 | 0.00 | 0.00 | 87 | 1020.3 |
| 20260508213013 | 48 | 272 | 3.0 | 6.0 | 0.00 | 0.00 | 0.00 | 87 | 1020.4 |
| 20260508212512 | 48 | 249 | 5.0 | 6.0 | 0.00 | 0.00 | 0.00 | 87 | 1020.4 |
| 20260508212010 | 48 | 277 | 4.0 | 6.0 | 0.00 | 0.00 | 0.00 | 87 | 1020.4 |
| 20260508211519 | 48 | 265 | 2.0 | 5.0 | 0.00 | 0.00 | 0.00 | 87 | 1020.4 |
| 20260508211010 | 48 | 258 | 5.0 | 5.0 | 0.00 | 0.00 | 0.00 | 87 | 1020.4 |
| 20260508210510 | 48 | 282 | 2.0 | 6.0 | 0.00 | 0.00 | 0.00 | 87 | 1020.5 |
| 20260508210013 | 48 | 282 | 2.0 | 5.0 | 0.00 | 0.00 | 0.00 | 86 | 1020.5 |
| 20260508205515 | 48 | 259 | 1.0 | 5.0 | 0.00 | 0.00 | 0.00 | 86 | 1020.4 |
| 20260508205013 | 48 | 282 | 1.0 | 6.0 | 0.00 | 0.00 | 0.00 | 86 | 1020.3 |
| 20260508204510 | 48 | 287 | 3.0 | 5.0 | 0.00 | 0.00 | 0.00 | 86 | 1020.3 |
| 20260508204010 | 48 | 273 | 3.0 | 5.0 | 0.00 | 0.00 | 0.00 | 86 | 1020.3 |
| 20260508203513 | 49 | 282 | 3.0 | 6.0 | 0.00 | 0.00 | 0.00 | 86 | 1020.3 |
| 20260508203010 | 49 | 264 | 4.0 | 5.0 | 0.00 | 0.00 | 0.00 | 85 | 1020.2 |
| 20260508202521 | 49 | 292 | 2.0 | 6.0 | 0.00 | 0.00 | 0.00 | 85 | 1020.2 |
| 20260508202019 | 49 | 297 | 3.0 | 7.0 | 0.00 | 0.00 | 0.00 | 85 | 1020.2 |
| 20260508201510 | 49 | 263 | 4.0 | 7.0 | 0.00 | 0.00 | 0.00 | 85 | 1020.2 |
| 20260508201013 | 49 | 251 | 5.0 | 7.0 | 0.00 | 0.00 | 0.00 | 85 | 1020.2 |
| 20260508200510 | 49 | 277 | 5.0 | 6.0 | 0.00 | 0.00 | 0.00 | 84 | 1020.1 |
| 20260508200010 | 49 | 277 | 5.0 | 7.0 | 0.00 | 0.00 | 0.00 | 84 | 1020.2 |
| 20260508195512 | 49 | 287 | 4.0 | 9.0 | 0.00 | 0.00 | 0.00 | 84 | 1020.1 |
| 20260508195010 | 49 | 266 | 3.0 | 8.0 | 0.00 | 0.00 | 0.00 | 84 | 1020.0 |
| 20260508194510 | 50 | 312 | 5.0 | 7.0 | 0.00 | 0.00 | 0.00 | 84 | 1020.0 |
| 20260508194016 | 50 | 287 | 3.0 | 8.0 | 0.00 | 0.00 | 0.00 | 84 | 1020.0 |
| 20260508193510 | 50 | 267 | 4.0 | 8.0 | 0.00 | 0.00 | 0.00 | 83 | 1019.9 |
| 20260508193013 | 50 | 310 | 6.0 | 8.0 | 0.00 | 0.00 | 0.00 | 83 | 1019.9 |
| 20260508192518 | 50 | 258 | 6.0 | 7.0 | 0.00 | 0.00 | 0.00 | 83 | 1019.8 |
| 20260508192010 | 50 | 282 | 5.0 | 7.0 | 0.00 | 0.00 | 0.00 | 83 | 1019.8 |
| 20260508191513 | 50 | 277 | 2.0 | 8.0 | 0.00 | 0.00 | 0.00 | 82 | 1019.7 |
| 20260508191010 | 51 | 297 | 3.0 | 9.0 | 0.00 | 0.00 | 0.00 | 82 | 1019.7 |
| 20260508190510 | 51 | 287 | 4.0 | 9.0 | 0.00 | 0.00 | 0.00 | 81 | 1019.7 |
| 20260508190010 | 51 | 266 | 6.0 | 9.0 | 0.00 | 0.00 | 0.00 | 81 | 1019.6 |
| 20260508185512 | 51 | 277 | 6.0 | 10.0 | 0.00 | 0.00 | 0.00 | 81 | 1019.5 |
| 20260508185016 | 51 | 310 | 5.0 | 8.0 | 0.00 | 0.00 | 0.00 | 80 | 1019.4 |
| 20260508184510 | 52 | 273 | 4.0 | 7.0 | 0.00 | 0.00 | 0.00 | 80 | 1019.3 |
| 20260508184013 | 52 | 293 | 3.0 | 7.0 | 0.00 | 0.00 | 0.00 | 80 | 1019.2 |
| 20260508183516 | 52 | 305 | 5.0 | 7.0 | 0.00 | 0.00 | 0.00 | 79 | 1019.2 |
| 20260508183016 | 52 | 301 | 5.0 | 10.0 | 0.00 | 0.00 | 0.00 | 79 | 1019.2 |
| 20260508182512 | 52 | 271 | 5.0 | 9.0 | 0.00 | 0.00 | 0.00 | 78 | 1019.1 |
| 20260508182010 | 53 | 268 | 7.0 | 9.0 | 0.00 | 0.00 | 0.00 | 78 | 1018.9 |
| 20260508181519 | 53 | 287 | 8.0 | 13.0 | 0.00 | 0.00 | 0.00 | 77 | 1018.8 |
| 20260508181011 | 53 | 257 | 4.0 | 12.0 | 0.00 | 0.00 | 0.00 | 77 | 1018.8 |
| 20260508180510 | 54 | 292 | 5.0 | 10.0 | 0.00 | 0.00 | 0.00 | 76 | 1018.7 |
| 20260508180016 | 54 | 310 | 6.0 | 11.0 | 0.00 | 0.00 | 0.00 | 76 | 1018.7 |
| 20260508175512 | 54 | 261 | 4.0 | 11.0 | 0.00 | 0.00 | 0.00 | 76 | 1018.7 |
| 20260508175010 | 54 | 292 | 7.0 | 12.0 | 0.00 | 0.00 | 0.00 | 75 | 1018.7 |
| 20260508174513 | 54 | 305 | 4.0 | 11.0 | 0.00 | 0.00 | 0.00 | 74 | 1018.8 |
| 20260508174010 | 55 | 267 | 5.0 | 9.0 | 0.00 | 0.00 | 0.00 | 74 | 1018.7 |
| 20260508173510 | 55 | 314 | 5.0 | 9.0 | 0.00 | 0.00 | 0.00 | 73 | 1018.6 |
| 20260508173016 | 55 | 310 | 5.0 | 11.0 | 0.00 | 0.00 | 0.00 | 72 | 1018.6 |
| 20260508172515 | 55 | 287 | 7.0 | 10.0 | 0.00 | 0.00 | 0.00 | 71 | 1018.5 |
| 20260508172020 | 55 | 311 | 5.0 | 9.0 | 0.00 | 0.00 | 0.00 | 70 | 1018.5 |
| 20260508171510 | 56 | 331 | 3.0 | 10.0 | 0.00 | 0.00 | 0.00 | 70 | 1018.5 |
| 20260508171010 | 56 | 277 | 4.0 | 11.0 | 0.00 | 0.00 | 0.00 | 69 | 1018.5 |
| 20260508170516 | 56 | 287 | 4.0 | 8.0 | 0.00 | 0.00 | 0.00 | 69 | 1018.4 |
| 20260508170013 | 56 | 318 | 2.0 | 10.0 | 0.00 | 0.00 | 0.00 | 68 | 1018.4 |
| 20260508165515 | 56 | 310 | 7.0 | 9.0 | 0.00 | 0.00 | 0.00 | 68 | 1018.4 |
| 20260508165013 | 56 | 312 | 3.0 | 6.0 | 0.00 | 0.00 | 0.00 | 69 | 1018.5 |
| 20260508164516 | 56 | 299 | 2.0 | 9.0 | 0.00 | 0.00 | 0.00 | 68 | 1018.5 |
| 20260508164013 | 56 | 310 | 7.0 | 9.0 | 0.00 | 0.00 | 0.00 | 67 | 1018.4 |
| 20260508163510 | 56 | 104 | 2.0 | 7.0 | 0.00 | 0.00 | 0.00 | 67 | 1018.4 |
| 20260508163010 | 56 | 302 | 5.0 | 8.0 | 0.00 | 0.00 | 0.00 | 67 | 1018.4 |
| 20260508162518 | 56 | 23 | 4.0 | 8.0 | 0.00 | 0.00 | 0.00 | 67 | 1018.4 |
| 20260508162013 | 56 | 287 | 4.0 | 8.0 | 0.00 | 0.00 | 0.00 | 68 | 1018.3 |
| 20260508161510 | 56 | 297 | 5.0 | 8.0 | 0.00 | 0.00 | 0.00 | 68 | 1018.3 |
| 20260508161010 | 57 | 303 | 7.0 | 8.0 | 0.00 | 0.00 | 0.00 | 69 | 1018.4 |
| 20260508160513 | 56 | 183 | 2.0 | 7.0 | 0.00 | 0.00 | 0.00 | 70 | 1018.3 |
| 20260508160013 | 56 | 282 | 4.0 | 8.0 | 0.00 | 0.00 | 0.00 | 70 | 1018.4 |